Back to catalog

STARLINK-30805

AliveCommunicationsVLEO
NORAD 58214·PAYLOAD·🇺🇸 United States

Launched Nov 3, 2023 from Cape Canaveral Space Force Station

Loading…

Next Passes (next 24 hours)

TLE

FreshSource: CelesTrak SupGP

Epoch: Sep 14, 2026, 21:59 UTC

1 58214C 23170J   26257.91645833  .00009641  00000+0  34922-3 0  2573
2 58214  43.0017 205.2951 0001559 260.3261  58.6890 15.27570335    16

Track STARLINK-30805 in real time with AllMySat

Download on the App Store